Tracking 28790 objects as of 19-Apr-2024
HD Live streaming from Space Station
objects crossing your sky now

TITAN 34B AGENA D DEB

Track TITAN 34B AGENA D DEB now!
10-day predictions


NORAD ID: 23811
Int'l Code: 1983-078C
Perigee: 513.3 km
Apogee: 13,583.3 km
Inclination: 63.4 °
Period: 257.8 minutes
Semi major axis: 13419 km
RCS: Unknown
Launch date: July 31, 1983
Source: United States (US)
Launch site: AIR FORCE WESTERN TEST RANGE (AFWTR)

Note: This is SATELLITE DEBRIS
Your satellite tracking list
Your tracking list is empty




NASA's NSSDC Master Catalog

Two Line Element Set (TLE):
1 23811U 83078C   24109.39433826  .00007179  00000-0  11265-1 0  9995
2 23811  63.4294 207.8715 4869867 247.0546  55.5019  5.58481188 93444
Source of the keplerian elements: AFSPC